Theta_e
339 340 339 337 339 338 341 341 341 341 341 341 341 340 338 338 338 336 335 334 335 336 332 333 337 338 336 335 335 335 335 338 336 334 333 334 336 340 341 341 341 341 338 337 337 337 337 337 336 334 333 338 338 337 335 333 332 332 332 331 331 331 330 329 329 329 328 328 327 326 327 327 327 327 326 326 326 326 326 326 326 326 325 325 325
335 337 337 336 336 338 338 341 341 340 341 338 341 337 336 335 336 335 331 332 333 337 332 333 333 336 336 333 334 336 336 337 335 341 334 334 336 339 341 341 341 342 340 337 337 336 335 337 336 336 333 334 338 337 336 335 334 333 333 332 330 331 331 330 329 328 329 328 327 327 327 326 326 326 326 326 326 326 326 326 325 325 325 325 324
335 335 336 336 334 338 339 341 341 338 340 339 338 338 336 332 334 334 332 336 334 332 331 332 333 333 336 334 334 334 335 338 336 334 335 333 335 337 340 340 340 340 340 340 339 338 336 336 336 336 335 334 334 338 337 336 335 335 334 333 331 331 331 330 331 329 328 328 327 327 327 327 326 326 325 326 326 325 325 325 325 325 325 324 323
338 336 336 335 336 335 338 339 338 340 340 339 340 338 335 334 333 336 339 336 334 331 337 333 331 335 334 334 335 337 339 337 336 338 342 334 333 335 337 339 340 340 339 340 339 339 338 338 335 335 337 336 334 338 337 336 337 336 335 334 332 331 331 331 330 330 330 328 327 327 327 326 326 325 326 326 325 325 325 324 324 324 324 324 323
340 336 333 334 336 337 338 340 342 340 339 338 337 337 336 335 334 339 339 339 336 332 332 333 332 331 333 333 334 336 338 335 336 337 335 339 339 335 336 336 338 340 340 340 339 340 339 339 339 337 336 336 336 335 336 335 335 338 337 335 334 332 332 332 331 330 330 329 327 328 327 327 327 326 325 325 325 324 324 324 324 324 323 323 323
339 339 336 336 337 338 339 341 339 338 337 337 337 336 336 334 333 339 337 336 332 333 332 331 333 334 334 334 334 336 337 335 335 336 338 334 339 338 338 337 336 335 337 341 340 339 339 339 339 339 339 339 338 336 335 334 334 332 336 337 335 334 333 332 332 331 331 330 328 328 328 327 326 326 325 325 324 323 323 324 323 323 323 324 323
339 342 341 339 340 340 337 337 340 338 338 338 338 336 334 333 333 332 334 335 335 335 333 334 336 335 334 338 334 335 338 337 337 334 336 337 336 336 338 336 338 336 335 337 339 340 339 339 340 340 339 339 338 336 336 336 335 335 333 338 337 336 335 334 333 332 331 330 329 329 328 328 327 326 325 325 324 324 324 323 323 322 323 323 323
340 341 340 340 340 340 339 338 340 339 336 339 338 336 334 334 335 332 332 331 332 334 335 334 335 336 337 335 336 335 337 335 334 336 337 338 336 338 339 339 336 337 335 334 336 338 340 339 339 339 339 339 338 338 337 337 336 336 336 336 339 338 337 335 334 333 332 331 330 329 329 328 328 328 326 326 325 324 325 324 323 323 322 322 322
341 340 340 340 338 338 339 340 339 337 337 338 336 337 334 333 332 334 333 330 332 333 334 334 334 334 334 335 335 334 336 337 333 335 335 336 334 338 337 337 338 337 335 332 336 336 338 339 339 339 339 339 339 339 338 338 338 338 338 337 337 338 338 337 335 334 334 333 331 330 329 329 329 329 328 327 326 325 325 324 324 323 322 322 322
341 339 340 340 337 336 334 338 335 335 335 337 336 336 335 335 332 336 333 331 333 331 331 332 332 332 332 335 335 335 336 338 335 338 336 333 334 336 336 337 338 335 334 335 336 334 335 334 332 334 336 337 339 339 338 338 339 339 339 338 338 338 338 338 337 336 335 335 334 332 331 330 329 329 328 328 327 325 325 325 324 324 323 322 322
339 339 339 338 338 336 334 333 335 337 336 336 337 333 333 336 335 334 335 335 334 333 332 331 331 331 331 333 333 334 334 335 335 334 336 334 333 334 336 335 334 333 336 336 336 336 333 331 333 334 335 336 337 338 339 339 338 339 338 339 339 338 338 338 339 338 337 336 335 334 334 332 331 330 330 329 328 327 325 325 324 323 323 323 322
338 340 340 337 336 334 335 336 337 338 337 335 333 332 333 335 334 335 334 332 332 332 335 331 332 331 331 332 332 332 331 334 332 333 336 333 332 333 332 333 333 334 334 333 335 336 335 335 337 337 338 335 336 337 336 337 337 338 338 339 339 339 338 338 338 338 338 338 337 336 336 334 332 331 331 330 329 329 327 325 324 325 324 323 323
340 340 338 334 336 336 335 337 339 338 338 336 335 331 335 335 335 335 332 331 331 334 335 332 329 327 329 330 330 333 332 333 334 331 331 332 332 329 330 331 329 331 333 335 334 335 332 335 336 335 336 337 333 332 334 336 336 337 338 338 339 339 338 338 338 338 337 337 337 337 337 336 333 333 332 332 330 330 329 328 326 325 324 324 323
340 340 340 337 334 335 335 336 338 336 338 340 339 336 334 333 334 334 334 333 331 335 335 332 327 325 324 324 327 328 331 331 330 328 329 326 326 326 326 324 323 326 330 331 332 332 334 333 334 334 336 336 336 333 334 334 332 332 332 332 334 337 338 337 338 338 337 336 336 337 337 337 335 334 333 333 332 331 330 331 329 326 326 325 324
340 340 334 334 333 333 333 335 335 336 336 336 337 337 336 334 335 332 327 330 332 333 332 332 326 326 327 323 318 319 324 328 328 328 328 328 326 324 325 322 322 323 326 328 329 331 331 333 333 334 335 336 337 336 333 332 329 328 327 328 329 332 336 337 337 337 337 336 336 336 335 337 336 335 334 334 333 332 333 333 330 328 327 326 325
337 335 336 335 334 333 333 332 336 337 337 336 336 335 336 337 335 332 331 325 328 328 332 331 330 325 318 319 319 319 313 317 321 327 326 323 325 322 323 322 323 324 325 326 327 329 330 331 332 332 333 335 334 334 335 330 327 325 325 325 324 324 329 334 336 337 337 335 334 334 333 336 336 336 336 335 334 334 334 333 331 332 330 327 327
337 335 336 334 336 335 335 335 336 337 337 337 337 336 336 336 335 332 331 327 325 327 327 329 330 331 325 318 316 314 314 318 319 322 326 322 320 320 324 320 320 323 323 325 327 327 328 328 328 330 331 331 333 334 334 329 320 322 319 321 322 320 320 327 333 335 336 336 335 333 334 334 336 336 336 335 335 334 333 333 333 332 330 329 329
335 335 335 335 336 337 337 335 335 335 335 336 337 338 337 335 333 333 331 331 329 324 324 329 330 329 331 329 326 319 316 320 319 313 324 323 323 320 319 320 321 321 321 320 321 322 327 327 328 327 329 330 332 324 321 318 319 315 316 315 318 318 315 319 328 333 337 336 336 336 335 335 335 336 336 334 334 334 333 333 333 332 332 331 330
335 336 335 335 335 335 334 334 333 334 335 336 334 335 334 332 336 335 334 333 333 326 324 325 330 329 330 330 330 328 327 320 316 317 311 317 318 316 317 319 320 320 320 320 320 324 323 325 327 329 331 332 328 324 321 319 317 316 316 316 315 314 313 312 320 328 334 336 336 336 336 334 334 335 336 335 333 333 333 331 332 333 333 333 332
337 333 334 335 337 334 333 333 333 333 333 332 334 336 335 335 334 336 335 333 331 328 326 325 325 326 329 328 327 328 328 327 324 322 315 310 309 315 317 319 320 321 319 319 319 321 324 321 322 323 322 319 318 317 318 316 313 313 313 314 314 312 312 310 310 316 325 334 336 335 336 334 335 335 334 335 335 333 332 330 331 333 333 333 333
330 334 335 333 335 333 334 335 334 334 329 328 332 331 334 333 334 334 335 333 334 331 331 327 326 326 328 326 328 327 325 326 327 325 321 311 309 310 310 317 318 320 321 319 320 322 322 322 321 320 319 317 315 315 314 314 312 310 312 312 312 311 310 309 307 309 313 328 333 335 335 335 334 334 332 334 334 334 334 333 333 333 332 332 332
337 335 335 331 333 335 333 331 332 328 328 328 331 333 333 335 335 337 335 333 333 333 331 332 329 327 330 329 326 325 324 324 324 322 320 320 309 309 311 311 309 314 319 319 318 319 317 317 317 317 316 314 314 313 311 310 310 310 310 311 311 310 308 307 306 307 313 319 327 330 331 330 330 330 329 331 332 332 331 332 332 332 333 332 332
333 334 334 332 334 335 333 332 332 332 330 328 331 330 334 335 336 335 334 332 332 331 330 331 330 328 327 328 326 324 322 320 320 320 318 314 310 310 311 310 309 312 316 317 314 313 315 317 316 315 315 314 312 311 309 309 310 310 310 310 309 310 309 306 304 304 310 314 318 322 325 326 326 326 326 327 327 327 327 328 329 328 329 330 330
331 330 333 333 335 334 334 332 332 332 331 331 331 331 335 336 334 333 332 333 332 331 331 328 328 327 328 326 326 325 325 322 321 322 319 315 312 310 308 308 308 307 313 311 309 310 311 312 314 315 315 314 313 311 310 307 308 310 308 309 308 308 308 307 304 303 303 307 311 316 321 323 323 323 322 322 323 322 322 323 321 320 321 323 325
329 329 331 334 334 334 331 330 331 331 330 328 330 332 334 334 332 330 331 330 330 329 328 327 328 327 324 327 325 323 323 323 328 323 321 320 317 308 308 310 305 304 306 310 304 305 307 309 311 312 314 313 312 310 310 309 308 310 307 307 307 307 307 307 307 305 303 303 306 310 315 317 319 319 318 317 317 317 316 315 313 310 311 314 317
328 330 333 332 331 330 330 329 331 330 329 331 330 328 329 330 330 329 329 330 330 329 328 327 326 324 324 315 316 313 313 318 318 321 320 318 316 313 309 308 307 305 306 304 304 302 303 307 309 311 312 314 312 310 308 307 308 312 308 304 305 307 306 305 306 306 305 304 305 306 308 310 312 314 314 314 312 311 312 310 308 307 307 308 309
328 329 328 328 331 331 331 330 331 332 331 330 332 330 329 324 325 328 328 328 327 325 324 322 320 319 320 318 314 313 320 315 317 320 319 325 319 313 308 305 307 310 304 303 302 302 302 305 309 311 312 314 315 314 312 309 309 311 308 303 302 305 305 304 305 306 305 304 303 302 303 305 306 308 308 308 308 308 308 308 307 306 306 307 308
328 329 329 326 327 328 329 330 330 330 329 329 327 325 325 324 323 322 320 322 322 321 318 319 321 321 320 321 317 316 318 317 317 314 318 316 316 315 315 310 306 301 305 303 303 302 305 303 306 310 310 311 312 314 315 312 310 313 313 307 304 302 304 304 304 305 304 303 302 301 300 301 302 304 305 307 307 307 306 306 305 305 305 306 307
327 330 328 329 329 328 326 326 325 323 323 323 324 323 322 322 321 320 319 319 319 318 320 319 319 318 316 317 318 316 315 318 318 318 318 319 319 324 316 314 317 305 303 302 303 303 305 305 302 304 309 312 313 314 312 310 313 313 312 308 306 302 304 303 303 303 302 302 302 302 300 301 302 303 306 306 306 306 305 304 304 304 304 305 305
327 329 327 324 324 325 325 325 325 326 326 324 320 322 322 321 320 318 319 320 319 320 320 321 322 321 319 318 317 317 319 317 319 318 318 317 316 318 315 316 314 311 310 303 304 308 308 306 305 303 306 307 311 315 312 307 311 307 310 308 305 302 304 303 302 301 301 301 301 301 301 300 301 303 304 304 305 304 304 303 303 303 303 304 304
324 324 323 322 324 323 323 323 323 321 322 323 323 319 318 316 317 318 320 318 318 318 321 321 322 322 320 319 319 319 320 319 317 318 319 321 325 317 316 317 316 315 310 307 304 308 313 306 308 306 305 306 306 307 308 306 307 307 310 309 305 305 305 302 302 302 302 302 301 300 301 301 301 302 302 304 305 304 304 303 303 304 303 303 303
325 325 322 321 320 321 321 320 320 321 321 321 319 319 318 318 319 318 318 318 316 316 318 320 319 321 319 318 319 319 321 319 318 318 316 318 319 317 317 317 316 317 314 310 306 306 310 310 308 307 307 309 307 306 306 303 302 307 305 310 305 308 303 300 302 302 302 301 301 300 302 303 302 301 301 302 302 302 303 302 302 304 302 301 301
324 324 321 320 319 318 318 318 318 320 320 321 321 319 320 319 318 316 317 316 315 318 318 318 319 319 317 317 317 319 319 319 319 322 318 316 318 319 320 316 314 316 316 312 307 307 311 314 313 308 310 309 306 306 307 309 307 306 307 309 306 304 304 300 301 302 301 301 301 301 300 300 299 300 299 299 299 300 302 301 301 301 300 300 300
325 320 319 323 320 319 316 316 318 317 319 320 321 321 318 319 320 322 319 317 315 317 318 317 317 318 319 315 317 318 318 318 317 313 314 315 313 313 315 317 313 315 315 315 309 308 306 312 312 307 311 310 307 307 309 309 309 309 307 307 311 309 307 303 301 302 301 302 301 300 301 299 300 300 300 300 300 300 301 301 300 300 300 299 298
324 325 321 321 320 318 317 317 315 317 317 320 321 319 319 320 319 321 321 316 317 318 317 315 314 317 316 315 315 317 321 317 318 318 317 316 312 312 313 314 313 313 313 313 313 309 307 308 313 307 309 312 308 306 306 308 308 308 306 306 307 310 309 307 303 302 300 302 302 300 301 301 301 301 300 300 299 300 300 300 300 300 300 299 298
319 322 322 321 323 321 320 316 316 318 319 322 320 317 318 319 319 318 317 318 318 318 317 314 313 316 316 315 316 317 317 315 316 316 316 316 317 315 313 314 316 313 315 315 314 310 309 307 307 305 308 310 310 309 309 308 307 311 307 307 309 309 309 310 309 302 300 301 303 302 302 303 302 302 301 300 300 301 301 300 300 300 299 298 298
321 323 319 321 322 321 323 318 316 317 319 322 320 320 321 321 320 320 317 316 319 319 318 318 317 316 317 318 314 317 317 316 316 315 315 316 313 317 315 313 311 315 317 315 315 313 310 310 309 310 311 310 309 309 309 307 307 307 308 308 308 309 310 311 311 312 303 303 302 302 302 302 303 302 301 301 301 301 301 300 300 300 300 300 298
324 324 318 320 316 317 320 321 318 317 317 321 321 321 322 324 322 321 322 321 321 321 321 321 318 319 318 319 320 317 317 318 318 318 318 315 316 316 314 316 313 314 318 316 316 313 311 311 312 312 311 311 309 309 311 309 309 306 307 310 310 310 309 309 310 312 313 307 306 304 303 300 301 301 302 302 301 300 300 300 300 300 299 299 298
320 322 322 319 320 318 317 319 319 318 317 317 320 321 321 322 322 322 323 322 322 323 321 322 318 321 321 321 321 321 319 319 319 319 318 318 318 317 316 316 314 314 313 313 313 313 312 312 311 312 311 312 312 308 309 311 309 308 308 307 307 309 310 309 308 310 310 311 308 306 306 306 304 303 302 301 300 301 301 300 300 300 299 298 296
321 319 319 320 319 319 317 316 317 318 318 317 317 318 318 319 320 321 322 322 320 323 322 322 324 323 323 323 322 321 321 321 320 320 320 319 318 316 319 317 316 315 314 313 313 310 310 312 310 310 310 310 313 309 310 309 307 308 308 308 305 305 307 308 307 307 309 308 306 307 306 304 304 304 302 303 303 302 301 301 301 300 299 297 295
326 322 323 321 320 317 318 318 316 317 318 318 317 316 317 318 321 322 323 322 324 321 322 321 323 323 323 322 320 317 316 312 306 310 310 316 322 318 319 317 316 315 314 312 312 311 311 310 309 311 308 307 308 309 309 306 306 305 308 308 306 306 306 305 307 308 307 305 306 305 306 307 305 305 305 304 305 306 302 301 301 301 299 297 297
327 327 326 326 322 319 318 318 318 320 319 321 317 310 312 319 321 321 324 323 323 323 322 322 322 322 321 322 321 316 313 312 307 301 301 302 306 316 316 316 317 315 314 312 311 311 311 308 308 309 308 307 306 309 308 309 308 308 306 306 302 303 303 303 305 306 308 306 304 303 304 306 305 304 304 303 305 306 304 301 299 302 299 297 297
328 328 325 322 323 324 322 319 319 322 322 322 306 304 305 309 322 323 323 323 323 322 322 321 319 319 321 321 320 318 318 315 313 303 301 299 299 299 299 300 306 314 313 312 310 309 309 309 308 307 306 306 308 308 307 306 308 305 304 304 304 303 301 300 298 302 307 305 303 301 301 304 304 302 303 303 304 305 305 305 303 302 300 298 298
324 324 324 323 321 322 322 320 320 321 322 309 300 303 303 304 312 323 322 320 320 319 318 317 317 318 319 322 322 322 321 321 324 319 306 298 297 296 295 295 294 292 298 307 308 311 308 307 307 308 306 305 306 306 306 306 304 305 304 302 302 301 300 299 299 298 303 305 301 300 300 303 304 303 302 303 304 305 305 302 300 301 300 299 298
326 323 322 323 322 322 323 321 321 321 322 298 300 300 301 303 306 314 320 320 319 318 318 316 315 315 317 317 318 322 319 317 318 320 317 308 296 294 294 294 294 294 294 293 296 307 309 308 306 306 305 306 306 305 306 305 306 303 302 300 301 301 300 299 298 299 301 304 301 299 298 301 302 301 301 303 304 304 305 302 301 300 300 299 299
321 320 320 322 323 323 323 323 322 321 321 301 298 299 301 301 302 309 320 320 319 319 317 317 316 315 317 314 312 313 318 317 318 318 319 310 305 304 304 305 303 295 292 292 293 295 301 308 305 305 309 308 305 306 307 306 304 302 301 300 301 299 299 299 300 301 302 305 300 299 298 299 301 300 298 300 303 303 303 302 300 300 299 299 299
321 319 320 320 319 320 321 321 319 318 320 303 297 297 298 299 298 304 319 321 320 319 319 318 317 318 315 314 309 307 312 318 312 305 315 312 311 311 309 309 307 305 304 301 300 304 308 310 306 309 306 305 306 304 302 303 302 302 301 300 299 299 300 300 300 301 301 304 302 299 294 295 297 296 296 297 300 299 301 300 300 300 299 299 298
323 322 322 322 320 320 320 319 317 315 319 299 296 296 296 297 297 308 316 317 317 319 318 320 317 316 317 314 310 310 316 309 297 294 298 310 314 312 310 309 304 300 296 294 292 293 299 301 301 301 298 295 296 296 296 298 300 299 298 298 297 297 296 295 294 296 296 299 299 297 295 294 296 296 296 299 299 298 299 299 299 301 300 300 298
322 321 322 322 321 320 319 318 317 317 313 296 296 298 297 296 298 309 314 314 314 315 316 319 318 317 317 318 316 316 312 305 294 295 292 300 314 311 310 307 306 302 299 299 293 291 291 291 290 290 290 290 291 291 291 292 295 297 297 295 294 295 292 291 292 293 293 297 298 298 296 294 296 296 296 297 297 296 297 298 299 300 300 300 298
319 321 322 321 320 320 319 318 319 318 315 301 296 298 297 296 301 311 312 312 312 313 313 316 316 312 307 305 315 311 306 300 290 292 292 306 312 310 309 307 306 303 300 300 301 296 291 291 290 290 291 291 290 291 291 291 291 294 296 293 295 295 293 293 291 293 294 295 297 298 294 292 295 295 294 295 295 296 296 296 297 298 299 297 296
318 319 319 320 320 318 318 318 315 317 318 308 295 296 295 295 299 311 313 313 312 312 313 314 312 307 304 302 307 305 303 296 290 291 293 305 312 311 310 307 305 303 301 301 300 298 298 298 297 298 297 292 295 296 297 291 291 294 296 296 297 295 292 293 294 292 291 293 296 298 292 292 292 293 292 291 290 293 295 296 296 297 297 297 298
Wind_Speed
2 3 1 1 0 2 1 0 1 0 1 1 2 2 3 4 5 6 7 4 3 2 3 4 3 2 2 2 8 4 6 7 4 7 6 5 5 6 8 8 6 4 5 6 7 8 7 7 7 6 5 8 8 8 8 8 7 7 7 7 6 6 6 5 5 5 6 6 5 5 5 5 6 7 8 7 7 8 8 9 9 9 9 9 9
4 1 3 3 2 1 2 2 1 1 1 2 2 2 5 6 5 7 4 3 2 1 4 3 3 4 3 5 10 9 8 7 4 3 7 6 6 5 7 8 6 4 4 6 6 5 5 6 5 7 5 6 7 8 8 7 7 7 6 6 5 5 5 5 4 5 4 5 5 4 5 5 5 5 6 6 7 7 7 8 7 8 9 9 9
3 3 2 2 1 3 3 1 2 1 1 1 1 2 3 5 9 5 3 2 2 4 5 3 4 5 5 7 9 6 2 2 4 2 4 6 6 5 5 7 7 6 5 5 6 5 4 5 7 6 5 4 5 7 7 7 7 7 6 6 5 5 4 4 5 4 4 4 3 3 4 4 4 4 4 6 6 6 7 7 7 7 8 7 7
7 4 2 2 1 2 2 2 2 4 3 3 2 1 1 4 13 8 4 4 2 4 2 5 6 3 6 6 5 5 2 3 4 2 2 5 5 4 4 4 7 8 7 6 6 6 6 5 5 6 7 6 4 8 6 5 6 6 6 6 6 5 5 4 4 4 4 3 3 2 3 3 3 3 4 4 5 4 5 6 6 7 6 7 7
6 7 4 4 5 4 2 2 1 1 2 3 2 1 3 4 11 9 3 1 3 4 4 7 8 7 6 5 5 6 4 5 3 2 1 2 3 6 5 5 4 6 8 8 8 7 6 5 4 3 4 5 6 5 6 5 5 7 6 7 6 6 5 4 4 3 4 3 2 2 2 2 3 3 3 3 4 4 4 4 5 5 6 5 6
4 6 5 4 4 3 2 0 1 1 3 2 1 1 1 2 6 5 1 1 3 4 6 5 5 7 5 4 4 4 4 5 4 2 2 3 1 3 4 5 5 3 3 6 7 7 7 5 4 3 1 3 3 6 5 5 4 2 6 7 7 6 6 5 4 3 3 3 3 2 2 2 2 2 2 2 3 3 3 3 3 4 4 6 6
3 3 4 5 4 3 2 1 1 2 1 2 0 1 2 3 6 10 3 2 6 4 5 5 5 7 5 4 3 3 1 1 3 3 2 2 4 3 4 4 4 5 5 3 2 4 6 7 6 5 4 1 1 1 4 4 3 4 3 7 8 8 6 5 4 3 3 3 3 3 3 3 3 3 3 2 3 3 3 3 2 2 4 4 4
4 4 3 2 1 2 2 2 2 1 1 1 1 3 3 3 2 6 10 3 4 3 3 4 4 5 4 4 4 2 1 2 3 2 2 2 2 2 1 2 3 6 8 2 3 2 2 3 2 1 2 1 1 1 2 1 2 2 2 3 7 7 6 5 4 4 5 4 4 4 5 5 5 6 5 4 3 3 2 2 2 2 2 3 3
3 4 3 1 2 2 1 2 2 1 2 1 2 2 2 3 4 2 5 9 1 4 4 4 4 5 4 4 3 1 1 1 3 2 3 4 5 0 1 1 2 8 5 3 3 1 1 2 2 2 1 2 2 3 2 3 4 3 4 4 2 5 7 6 6 6 7 5 4 5 6 6 5 6 5 6 4 3 3 3 3 2 2 1 2
3 3 3 1 2 3 1 3 3 1 2 2 2 2 4 4 4 2 1 1 4 2 3 4 5 4 2 2 2 2 1 1 1 3 3 0 4 2 1 1 0 11 4 3 1 2 1 3 2 3 3 2 2 3 4 3 3 4 3 3 3 3 6 7 6 7 7 6 5 5 6 6 6 6 5 6 5 4 4 3 3 3 3 2 2
4 4 4 2 2 2 3 3 4 3 3 3 2 3 1 1 3 3 3 1 5 8 5 5 4 3 2 3 2 2 0 1 3 2 1 2 5 5 2 1 8 6 2 2 1 2 3 0 0 0 1 1 2 4 5 4 4 3 4 4 3 4 4 6 7 8 9 9 7 7 5 7 7 7 6 6 6 5 4 4 4 3 3 3 2
4 4 4 1 2 3 3 4 5 2 3 4 4 3 3 1 0 0 4 3 6 3 1 4 3 3 3 3 3 2 1 1 4 3 2 2 1 7 7 5 8 3 4 2 3 3 3 1 2 2 3 6 8 7 7 7 6 5 4 4 4 5 5 5 7 7 9 10 10 9 6 7 8 8 7 6 6 6 6 4 4 4 4 4 4
4 4 6 4 2 2 1 2 2 2 3 3 6 7 4 4 2 1 3 3 3 2 1 4 4 3 3 3 2 3 2 4 0 1 2 1 3 4 7 8 9 8 4 1 4 4 1 2 2 1 2 3 4 6 7 9 10 10 8 8 8 6 5 6 7 8 8 8 9 9 7 8 9 9 9 8 7 6 7 6 7 5 5 5 5
4 4 3 5 2 3 4 2 1 1 0 2 3 7 6 4 4 3 2 1 1 0 1 2 1 2 3 2 1 2 2 1 3 2 1 5 5 6 3 6 6 4 7 2 2 4 3 2 1 1 2 3 2 2 1 4 7 11 11 11 10 9 8 7 8 7 8 8 7 7 7 7 9 10 10 10 9 8 6 9 9 7 6 7 6
3 3 6 4 3 4 4 4 4 2 1 1 2 5 5 6 5 6 1 1 2 2 1 2 3 1 1 2 2 2 1 1 1 1 1 2 4 7 6 6 8 6 5 7 3 3 4 1 0 1 3 1 3 3 4 6 8 13 13 13 12 11 10 9 8 7 9 6 7 8 6 6 8 10 11 11 11 9 7 5 6 7 8 7 8
5 3 5 4 4 4 3 3 1 1 1 2 3 5 4 2 5 6 6 4 1 1 1 2 1 4 2 1 1 0 2 0 1 1 2 3 1 5 4 6 7 7 6 5 6 4 2 1 3 4 2 2 3 2 3 5 9 11 13 13 13 13 12 11 10 9 7 6 7 8 10 10 8 8 11 12 11 9 7 6 7 6 7 8 8
5 6 6 1 3 3 2 3 2 1 1 0 1 3 4 3 3 6 5 7 5 2 4 3 5 2 1 3 2 1 1 2 2 0 1 1 5 5 3 6 5 5 8 6 5 8 5 2 3 4 3 2 2 1 4 5 7 7 8 12 13 13 13 12 11 10 8 7 4 5 8 8 7 7 8 9 9 9 10 8 7 6 7 9 9
4 9 9 8 5 3 2 3 4 3 2 1 1 0 1 3 3 5 3 4 7 6 3 3 2 1 2 2 1 0 5 2 2 3 0 3 2 6 3 4 3 6 7 7 6 5 8 3 1 3 3 2 2 6 7 7 6 6 5 8 13 13 12 13 12 11 12 8 8 7 4 4 5 3 4 5 6 7 9 9 8 10 11 11 11
3 3 3 3 4 4 3 3 4 5 3 1 1 2 3 3 2 4 3 5 4 7 7 4 1 0 1 1 1 1 3 3 2 2 3 3 6 7 8 8 9 8 8 6 3 3 5 7 5 2 3 3 4 6 6 7 9 9 11 11 11 12 12 13 13 13 14 14 12 11 10 7 6 4 5 2 7 7 6 8 12 15 14 13 12
2 2 3 3 1 3 4 5 6 5 7 6 4 2 2 2 3 2 2 4 3 4 6 5 3 2 2 1 0 0 2 4 3 1 3 4 5 7 7 8 7 6 6 5 3 2 4 5 6 5 5 9 8 8 7 7 6 6 6 10 11 12 12 11 11 12 14 16 14 11 12 10 10 11 9 7 4 4 9 14 17 15 12 12 13
4 2 2 2 1 3 2 2 2 1 7 6 4 2 1 4 4 2 2 4 3 3 2 6 5 3 4 1 1 2 3 2 1 1 1 5 5 6 4 3 4 3 5 5 4 2 2 4 7 8 7 7 7 6 6 5 4 4 6 10 11 12 12 12 12 13 14 15 17 17 17 17 16 15 13 11 10 9 6 8 12 13 13 14 15
2 3 1 4 3 2 2 3 4 5 5 6 5 3 4 1 2 2 5 5 3 2 3 2 3 3 2 2 2 2 3 1 0 0 0 1 6 6 5 5 4 1 2 4 4 4 6 7 7 9 8 7 6 6 5 5 4 4 6 11 11 11 11 11 12 13 13 13 15 16 15 15 15 14 14 15 17 17 17 16 11 6 7 9 10
3 3 3 4 3 2 2 2 3 4 2 3 3 3 2 2 3 4 4 4 3 4 3 2 3 6 6 2 3 4 4 3 3 2 3 2 6 6 6 6 4 2 1 3 5 6 6 6 6 7 8 7 6 6 5 4 6 7 11 12 12 11 12 11 12 12 12 12 13 14 15 15 14 14 14 15 16 15 16 16 17 17 14 8 6
4 3 3 3 1 1 2 4 3 2 2 3 3 4 2 1 4 4 4 4 3 3 3 3 3 3 3 6 4 3 2 3 6 6 4 4 7 6 6 7 5 3 1 4 6 7 5 6 7 7 7 7 6 6 6 5 6 10 8 10 10 11 10 11 12 13 13 13 13 13 15 15 15 15 15 15 15 15 15 15 15 14 15 16 15
4 4 1 2 1 0 3 4 3 3 4 4 4 4 2 3 4 4 4 5 5 4 4 3 2 3 2 1 2 3 4 2 1 3 4 3 6 6 8 6 6 5 3 3 3 4 4 6 5 5 7 7 6 5 5 5 4 6 9 7 9 9 9 11 10 11 12 13 13 14 15 15 15 15 15 15 15 15 14 14 13 12 13 13 14
3 3 2 2 4 4 4 4 3 3 3 2 4 4 5 5 5 5 5 4 3 2 3 3 3 3 3 5 4 4 4 4 3 5 3 3 1 3 6 5 6 7 5 4 6 5 3 5 6 6 6 6 7 7 5 5 4 7 8 5 7 9 9 10 10 9 9 11 11 12 13 14 13 14 14 14 14 14 14 13 13 13 12 13 13
4 4 5 4 3 3 3 4 3 2 2 1 2 3 4 5 4 4 4 3 4 4 4 4 5 4 3 4 6 6 3 1 3 6 1 0 3 6 6 3 2 2 4 5 5 5 4 3 6 6 5 5 5 7 7 5 7 10 9 5 5 7 8 9 9 8 8 7 8 8 9 9 9 10 10 11 12 12 13 13 13 12 13 13 14
4 3 3 4 3 3 3 3 2 1 2 2 4 5 7 5 4 6 6 5 6 6 5 4 3 4 4 5 5 4 6 7 3 6 5 7 5 7 4 2 3 6 5 5 3 3 5 5 4 6 6 5 4 5 7 8 6 9 7 4 4 4 6 7 7 7 7 8 7 7 7 8 9 8 9 9 10 10 11 11 11 10 10 10 12
3 2 3 3 2 3 4 3 4 4 4 4 4 5 6 5 6 6 7 6 6 6 4 4 4 4 5 4 4 4 5 5 6 6 6 6 5 4 1 2 3 4 3 3 3 3 3 2 4 3 5 3 4 6 5 4 6 6 4 5 4 3 4 5 6 6 7 7 7 6 5 6 7 8 8 9 9 9 9 8 8 9 9 9 10
3 2 3 4 4 4 3 3 1 1 2 3 4 4 4 4 5 5 4 4 4 3 3 3 3 4 6 7 6 6 5 4 5 5 5 6 6 5 7 5 6 5 2 6 4 3 2 5 4 2 4 5 4 3 4 4 4 2 7 5 5 4 5 6 5 5 6 7 6 6 5 5 5 5 5 6 6 7 7 8 8 9 10 9 10
3 3 3 3 3 3 3 3 3 3 3 3 3 5 5 5 4 4 4 4 5 4 3 3 3 3 4 5 4 4 3 4 4 3 3 4 2 4 5 6 6 5 6 6 5 3 2 3 3 4 4 3 4 4 4 4 2 0 2 6 5 8 9 5 6 5 4 6 7 6 5 4 4 4 4 4 4 4 5 5 7 7 6 8 9
2 2 3 3 3 3 3 3 3 3 2 3 4 4 4 3 3 4 4 5 5 4 4 4 4 3 4 4 3 2 2 3 4 5 5 4 4 5 5 4 5 4 8 8 7 4 3 2 1 2 3 0 3 6 5 4 2 5 3 5 7 11 6 4 4 6 5 5 7 7 6 3 2 2 4 4 3 3 3 3 4 4 5 5 7
3 3 3 3 3 3 3 3 3 3 3 3 3 3 3 4 4 4 4 4 4 3 4 4 4 4 5 4 3 4 4 4 2 2 2 3 3 3 2 5 4 4 3 6 6 5 2 1 1 3 2 3 2 4 4 3 2 3 4 6 8 7 6 5 5 6 6 6 5 6 6 4 1 1 3 5 5 4 3 3 3 3 5 5 7
2 3 4 3 4 3 3 3 3 3 3 3 2 3 4 3 2 3 4 4 4 4 3 4 4 4 4 4 4 5 5 2 4 1 4 3 4 4 2 3 6 2 3 2 6 5 3 1 0 3 2 0 1 4 5 2 2 4 3 5 5 7 7 6 5 4 8 7 7 6 6 4 2 3 4 6 6 5 5 3 3 3 4 4 5
3 2 3 3 3 3 4 4 4 3 3 3 3 4 3 2 2 2 4 5 4 3 4 4 4 3 5 4 4 2 2 3 1 2 3 3 6 4 6 7 5 5 5 3 1 3 5 3 2 3 3 1 1 1 6 4 3 2 3 1 1 1 3 8 7 5 9 11 9 7 7 6 5 5 7 8 8 7 6 5 4 4 3 2 4
5 4 4 3 3 3 4 4 4 3 3 3 4 4 3 3 2 4 4 4 3 2 3 4 5 3 4 4 3 2 1 1 3 3 2 2 0 1 3 4 3 3 2 3 1 5 3 5 3 1 3 3 3 3 1 4 6 1 3 2 1 2 0 3 3 6 9 10 7 8 8 7 7 8 8 10 10 9 7 6 5 4 2 1 2
3 3 4 3 3 3 3 4 4 4 3 2 3 3 4 3 3 3 4 4 3 3 2 3 6 4 3 2 4 2 1 0 2 3 1 2 4 2 2 2 4 4 1 2 3 1 1 2 2 2 4 2 1 1 2 1 4 5 3 2 2 5 5 4 3 2 7 11 10 10 10 9 8 7 9 10 11 11 10 8 7 6 4 3 1
3 3 4 3 4 3 2 2 3 3 4 2 2 3 2 2 3 3 3 3 1 2 2 3 3 4 4 1 3 4 1 0 0 1 3 3 2 4 5 6 4 3 1 1 0 3 3 4 1 3 1 2 1 1 1 2 2 1 1 7 5 4 4 3 3 5 4 2 4 6 7 7 7 9 10 11 12 13 11 9 9 9 6 5 4
5 3 3 3 3 3 5 4 4 4 4 4 3 3 3 3 2 2 3 3 1 1 2 0 4 3 2 2 3 3 3 3 0 1 2 3 4 4 3 4 5 3 0 1 1 1 2 1 1 2 1 0 2 1 2 3 3 1 6 5 5 4 3 5 5 4 3 5 7 5 6 5 5 3 7 9 11 14 13 10 11 11 7 7 5
5 5 4 3 4 3 4 5 4 5 5 5 5 5 5 5 4 4 4 4 4 2 4 1 2 1 2 2 3 3 3 1 2 1 1 0 1 0 2 3 2 2 1 2 1 3 3 1 1 1 3 1 0 2 3 1 2 3 3 4 3 4 5 4 4 4 2 3 5 6 3 4 5 6 7 8 11 15 14 10 12 10 8 8 8
3 4 4 4 4 4 4 5 5 5 5 5 5 6 5 7 6 5 4 4 2 3 3 3 3 2 3 4 5 3 6 7 8 6 6 4 2 1 1 2 2 1 1 1 3 2 2 3 3 4 4 4 3 3 2 1 2 1 1 1 0 0 2 4 3 6 2 3 3 5 5 6 6 5 6 8 10 10 5 10 9 9 10 10 10
2 2 2 2 3 4 4 4 5 5 5 4 6 13 8 6 5 5 4 3 3 3 2 2 3 3 3 4 4 7 7 7 6 5 5 6 5 3 1 2 2 2 1 1 2 2 3 5 4 2 3 2 2 2 2 2 2 1 4 5 3 3 4 4 3 2 5 5 5 6 6 6 6 7 7 7 5 1 3 4 6 7 10 12 12
2 1 2 3 3 3 3 4 4 3 5 4 8 12 7 11 6 5 4 3 4 5 5 4 4 4 3 3 2 2 2 2 2 4 5 5 5 4 3 4 4 0 0 1 3 2 3 3 3 3 1 3 7 3 1 3 5 5 3 3 3 2 2 3 4 4 2 7 5 7 9 7 7 8 7 6 5 7 5 3 6 11 11 13 12
3 3 3 3 4 4 4 5 4 4 4 7 11 9 9 11 10 7 5 5 3 3 4 4 4 3 2 4 3 3 1 1 0 2 4 8 6 5 5 5 4 6 5 2 1 1 2 2 3 4 4 3 3 6 5 4 4 4 4 2 1 1 3 3 3 3 3 6 7 7 8 6 5 5 6 6 6 4 5 7 6 11 13 13 13
1 3 3 3 4 4 3 5 7 4 3 8 11 10 11 13 14 10 6 6 6 5 4 4 3 4 4 4 2 2 3 6 6 3 4 4 6 7 7 6 6 5 4 5 4 2 1 3 2 3 2 3 4 3 3 1 2 3 2 3 4 3 3 4 3 4 6 6 6 6 7 5 5 7 7 6 5 4 4 7 7 9 11 12 13
1 3 5 5 4 3 3 4 4 4 6 3 7 11 12 12 14 10 8 6 5 6 6 6 5 4 6 6 4 2 3 4 4 3 3 5 4 4 3 2 2 3 4 5 3 1 1 1 1 0 2 3 4 3 3 3 4 4 4 4 4 3 4 4 4 6 7 6 7 6 6 6 5 5 5 6 5 4 4 5 9 6 8 11 11
5 6 6 5 5 5 4 2 3 4 2 4 11 10 10 12 10 5 4 4 5 5 6 6 5 5 6 6 5 5 4 5 2 5 5 6 5 4 3 3 3 2 4 5 4 3 2 2 1 4 4 5 4 4 4 5 5 4 4 3 3 3 4 4 5 6 7 5 4 3 6 4 4 5 5 6 5 6 5 6 9 10 9 10 11
5 5 5 5 7 7 7 6 5 7 3 11 4 4 7 5 6 6 5 2 1 1 2 3 6 5 5 6 6 5 4 6 4 9 4 3 6 5 5 4 6 4 4 2 2 4 6 4 4 4 4 4 5 4 4 4 4 4 5 5 4 4 4 4 5 5 5 5 5 5 4 5 5 5 5 5 6 7 7 7 11 14 15 14 11
5 6 6 6 6 7 8 7 6 6 3 10 16 18 16 15 10 6 5 3 2 2 1 1 2 5 6 7 7 6 6 4 5 7 5 1 4 5 5 6 5 5 3 2 4 8 8 9 9 9 8 7 7 7 7 7 4 2 1 2 2 3 4 4 4 4 4 5 5 6 4 5 5 6 7 5 6 8 8 8 6 9 13 12 8
3 3 4 6 7 8 9 8 7 5 5 9 17 17 17 16 13 9 7 7 5 5 5 4 6 3 3 5 8 8 8 5 5 7 2 2 2 5 6 6 5 5 4 3 2 3 6 7 6 5 5 5 5 5 6 6 5 4 3 3 1 0 3 3 4 3 4 4 3 4 5 4 5 5 6 6 5 3 5 6 7 7 9 8 7
4 5 5 4 7 7 7 8 9 8 5 7 13 13 13 13 12 9 8 7 6 6 7 9 6 5 3 1 11 12 10 9 9 6 5 2 1 6 6 6 6 6 5 5 4 3 2 2 1 1 0 1 2 2 3 7 8 5 1 3 2 3 3 3 5 4 4 2 1 6 5 5 6 4 5 7 6 4 4 5 9 9 8 8 6
Wind_Direction
124 100 111 67 2 308 18 255 146 95 28 9 304 305 254 246 243 246 242 218 203 203 169 133 127 81 33 45 56 87 70 25 49 110 113 122 119 121 124 118 106 96 126 144 146 136 137 130 123 126 117 128 133 130 124 126 127 128 128 124 132 127 129 125 119 118 115 116 114 111 100 91 89 91 95 89 83 83 78 72 71 71 73 75 70
123 92 147 183 213 203 243 197 155 91 216 237 38 342 316 303 270 249 223 227 183 182 94 118 99 70 57 57 49 12 35 43 44 11 119 113 115 132 129 122 105 89 98 123 131 133 136 131 121 112 117 121 142 141 132 132 133 133 133 137 132 141 136 137 131 126 128 114 115 119 119 105 99 97 97 100 90 84 85 85 85 83 75 70 68
131 168 155 159 197 226 213 194 136 145 242 79 56 300 307 293 286 293 229 298 174 120 135 142 112 68 45 68 85 60 11 71 69 47 105 117 123 139 137 125 118 101 84 96 104 94 88 124 121 122 118 111 118 141 133 145 152 144 144 150 147 148 152 147 150 148 134 127 120 106 107 102 97 94 86 90 94 85 86 90 93 92 82 72 71
154 151 138 243 254 262 248 222 184 143 164 139 131 155 56 336 290 256 348 229 194 102 60 76 76 83 84 62 91 126 105 69 44 4 348 118 132 126 134 139 136 132 124 109 95 89 72 51 106 123 141 128 118 125 136 153 157 160 156 160 165 166 167 170 160 157 155 144 141 149 110 108 101 87 83 76 84 89 88 83 79 82 94 91 80
129 137 160 193 216 220 225 255 76 117 101 93 82 197 96 281 260 254 228 274 64 91 92 72 74 81 79 87 95 107 140 133 160 169 201 67 110 134 152 150 154 150 143 128 113 100 79 72 56 64 70 73 125 132 145 144 161 174 184 173 175 179 179 181 179 174 155 156 162 142 142 121 121 105 90 91 90 93 90 83 75 73 80 92 88
143 142 156 189 235 197 175 123 150 115 104 121 187 243 55 143 287 267 281 45 67 61 75 72 76 82 80 98 96 113 139 147 143 220 141 141 93 129 141 152 158 156 138 111 117 122 132 135 142 128 87 60 12 129 153 165 170 194 179 183 184 185 187 186 190 177 168 168 158 176 156 164 141 130 127 128 122 113 110 84 74 70 72 78 79
138 132 149 175 192 156 119 123 238 171 142 130 146 62 33 35 353 316 324 25 68 63 82 89 96 96 93 89 104 80 3 110 118 125 85 100 153 139 166 174 176 155 107 95 104 152 161 167 158 144 128 119 68 102 148 164 197 169 215 189 191 192 188 190 188 189 183 189 174 192 202 166 181 156 169 182 176 146 135 124 86 65 71 69 69
144 131 122 162 135 80 112 160 211 106 96 141 129 75 41 37 82 347 327 314 120 98 89 97 92 98 107 100 77 81 14 34 72 98 118 93 98 125 171 210 162 98 89 102 240 180 195 154 134 96 108 136 199 302 318 329 215 211 219 219 191 200 190 189 196 196 195 205 188 196 202 200 192 182 179 183 195 199 145 145 134 109 58 68 66
138 125 124 118 88 89 75 123 251 158 124 149 85 119 105 69 36 35 27 311 103 92 73 91 93 79 72 82 100 113 133 127 158 143 172 160 134 142 117 39 26 95 98 173 200 266 105 23 40 19 10 2 340 280 258 266 318 322 327 316 181 210 205 202 195 198 208 216 203 206 208 205 207 202 192 186 190 205 188 164 190 153 144 105 80
136 123 100 121 104 126 111 96 252 183 177 129 140 131 122 144 156 176 168 243 359 68 108 85 64 72 75 112 105 62 350 233 86 94 76 104 125 123 142 146 64 76 114 209 180 119 140 58 354 13 353 341 319 300 298 285 289 307 296 297 304 228 221 218 214 203 210 220 224 228 209 210 213 218 212 194 190 198 203 195 189 205 159 165 165
111 130 140 131 189 120 96 152 242 205 163 158 149 81 6 151 129 126 137 352 34 1 38 65 77 92 77 50 82 126 272 71 40 82 144 201 146 169 167 39 64 64 177 198 140 114 70 307 353 341 204 157 5 350 352 350 321 302 301 297 298 287 249 236 236 232 221 216 221 230 225 192 212 223 230 217 205 197 211 211 211 202 191 196 191
140 137 129 94 123 105 142 153 212 191 187 160 151 129 181 164 145 136 94 50 60 305 112 103 101 101 89 75 41 54 154 236 146 190 195 146 146 91 72 56 74 152 202 179 94 46 51 54 28 27 5 61 54 63 54 42 33 31 17 354 321 306 290 268 256 243 234 228 229 221 217 184 205 216 223 232 231 200 201 215 220 217 204 194 215
129 135 123 174 153 119 181 174 212 215 171 186 157 164 206 155 155 78 112 124 174 208 139 113 113 79 66 77 48 5 78 23 36 155 212 126 91 95 130 150 166 156 171 187 124 114 109 77 77 81 75 70 67 65 62 61 53 46 33 21 11 354 327 310 289 278 274 253 239 240 226 196 197 207 214 223 234 228 213 205 201 212 221 203 214
134 136 134 128 113 195 162 102 253 267 168 204 152 143 162 174 170 133 91 160 132 47 56 89 38 156 150 107 107 75 42 35 317 148 170 148 125 123 136 118 103 106 122 111 65 112 96 75 159 203 92 110 116 90 96 80 57 49 37 28 20 8 1 347 346 325 289 278 272 252 234 228 212 203 212 216 222 231 233 200 216 204 213 216 220
140 116 115 120 171 233 111 143 197 177 180 191 163 137 167 171 154 105 63 353 48 26 44 27 134 92 42 124 163 146 20 6 309 37 341 10 160 153 163 139 121 127 121 119 113 105 96 100 256 12 66 62 107 81 73 69 68 54 42 32 25 17 11 4 343 343 330 319 308 281 279 249 235 216 210 218 222 224 229 219 211 199 210 219 220
61 62 94 93 150 221 139 133 220 235 178 177 176 157 143 168 156 139 151 149 197 122 272 185 133 142 133 245 99 109 132 187 144 305 140 212 205 65 42 100 118 109 94 88 113 116 83 143 98 78 66 45 66 94 90 103 75 58 40 29 26 21 16 11 6 1 341 336 317 337 306 272 251 238 218 216 221 222 218 218 226 221 204 216 223
132 97 79 62 224 213 180 123 122 267 299 323 211 167 158 187 167 146 154 164 146 137 262 162 182 246 165 135 107 77 228 141 141 276 253 101 85 102 39 59 51 96 114 123 131 119 132 127 75 86 92 85 82 76 74 69 41 30 28 23 21 24 16 12 16 11 2 357 343 292 295 308 279 237 235 233 226 219 216 213 215 215 219 216 226
137 140 153 181 159 144 146 153 149 177 193 191 242 273 205 185 184 115 156 137 122 130 230 295 201 258 310 1 315 167 154 178 125 147 349 5 68 69 103 98 130 91 78 69 47 96 127 116 72 113 137 149 144 81 70 68 60 44 30 20 25 27 21 15 20 20 11 16 1 350 336 319 334 332 256 251 244 229 220 227 215 216 218 219 221
95 110 111 138 153 159 181 188 169 158 162 165 229 195 197 194 122 133 143 145 154 130 181 222 167 179 263 280 339 27 102 125 177 160 112 56 56 62 44 53 42 53 83 82 91 58 109 131 148 166 167 153 110 100 91 72 61 55 41 32 33 33 29 20 17 17 16 25 26 18 9 6 358 25 13 287 239 243 235 240 240 225 219 219 217
112 108 154 132 161 178 188 183 181 179 162 181 196 198 183 191 145 147 183 148 152 136 152 161 212 166 177 234 56 20 74 60 105 154 124 114 70 51 55 38 43 55 67 97 112 90 94 124 122 109 73 62 53 53 61 64 56 46 35 33 39 37 33 28 21 20 18 29 38 40 40 40 47 49 36 27 353 238 234 231 239 244 240 232 224
75 82 52 107 76 32 347 348 326 189 178 155 173 161 161 128 119 141 152 89 96 132 131 135 222 160 162 151 197 112 83 81 97 121 153 132 113 98 92 70 69 47 112 108 93 91 96 106 111 94 83 74 68 62 59 61 65 51 39 42 46 41 36 33 32 32 30 30 35 44 45 41 42 42 31 28 26 10 333 261 240 237 237 241 250
72 31 30 65 74 117 28 12 27 26 34 62 71 63 77 52 132 130 96 109 107 107 98 106 121 126 19 149 110 111 98 91 169 75 322 283 130 129 136 135 113 177 155 145 143 134 93 82 84 95 95 90 81 77 69 61 56 57 44 48 48 48 44 40 39 37 38 38 42 46 49 47 44 41 35 34 31 32 30 26 21 4 298 291 271
88 54 48 69 28 82 162 100 27 10 43 99 112 116 81 99 96 86 86 96 99 101 112 114 118 126 169 130 163 164 155 174 182 198 200 139 110 137 149 115 125 134 206 172 137 123 108 88 90 99 99 99 97 91 86 83 72 68 59 50 48 47 47 45 46 44 41 42 41 44 49 49 48 43 38 37 39 38 39 38 32 34 27 11 352
99 88 65 108 151 314 33 80 62 86 79 73 73 70 60 108 86 81 84 85 99 89 74 102 103 119 127 170 164 186 172 195 189 172 197 166 134 147 125 129 139 124 140 72 86 75 78 102 108 106 107 112 114 113 106 91 87 83 70 58 54 50 45 46 44 42 42 40 38 38 45 48 48 46 42 39 44 46 43 44 46 42 38 28 20
110 105 100 114 143 355 76 83 45 35 69 74 62 81 74 48 70 66 63 67 68 86 89 89 130 106 156 169 146 155 181 200 178 186 146 140 125 144 137 140 120 138 156 165 97 76 86 84 86 93 114 113 105 101 108 114 119 113 93 63 61 55 53 52 48 46 43 40 38 33 34 38 41 44 40 38 37 43 45 42 36 34 37 40 32
111 125 174 111 62 66 58 77 79 57 37 47 108 110 101 102 100 99 88 103 112 115 94 78 52 42 49 63 64 64 33 18 3 51 101 108 135 103 101 110 156 149 163 139 127 118 91 94 94 80 76 96 119 123 116 114 121 117 104 92 58 55 59 58 55 51 49 46 39 36 37 35 36 35 32 31 30 28 30 35 36 35 33 30 28
79 66 65 67 74 63 66 53 55 84 102 53 52 119 111 85 83 100 105 95 77 60 54 56 51 49 53 65 59 30 19 6 29 360 335 130 107 111 106 122 253 138 120 103 102 104 124 101 109 107 101 99 112 133 133 140 152 138 119 101 87 66 68 70 71 65 59 54 46 43 38 38 38 38 35 34 30 27 27 27 30 34 30 25 23
81 93 79 86 90 99 110 116 109 74 69 66 52 61 80 90 91 89 90 96 98 83 72 64 48 36 44 50 54 36 23 16 34 34 357 66 69 74 96 148 117 72 71 74 74 93 128 106 83 114 122 124 136 110 123 138 161 167 134 114 109 79 70 75 79 80 78 68 62 51 42 39 32 31 31 31 30 33 32 29 26 25 26 21 25
101 99 120 124 107 84 76 70 52 61 67 71 69 69 71 68 65 64 61 57 70 81 77 72 67 73 91 94 83 70 47 24 30 21 13 41 47 73 25 138 56 114 138 109 101 116 19 59 128 76 104 106 105 134 147 141 151 166 121 116 115 112 103 104 93 95 92 90 77 67 57 38 32 26 25 23 25 25 28 28 27 24 20 21 27
110 101 75 69 84 95 94 80 95 97 91 81 86 90 90 79 80 90 101 102 97 86 82 79 53 44 59 63 58 57 48 50 29 20 29 30 36 36 44 33 67 22 172 119 92 31 107 34 40 117 131 130 143 134 112 114 115 122 135 142 133 138 151 132 125 114 114 107 98 88 71 51 29 23 14 15 17 17 17 17 17 19 19 18 19
94 100 112 114 112 104 109 98 75 69 65 77 83 81 82 91 99 104 105 98 96 95 97 91 76 72 73 75 72 72 85 86 71 54 30 16 2 39 51 54 43 40 84 125 103 354 40 85 41 43 40 73 103 84 91 90 128 227 149 145 147 153 155 143 145 146 139 131 119 104 88 63 33 9 4 343 345 6 3 6 9 13 16 21 17
136 146 138 123 128 143 117 124 124 136 125 90 104 117 126 132 113 99 115 121 118 129 134 127 107 101 103 104 101 121 135 81 53 58 51 29 29 52 61 68 46 28 70 73 94 79 13 85 118 134 120 278 171 149 137 146 195 180 226 153 152 158 154 138 179 175 171 157 136 124 114 105 63 352 335 331 335 341 353 356 357 10 24 28 21
165 174 137 149 129 114 147 143 125 106 109 115 121 133 122 110 127 150 149 137 134 116 105 114 134 109 88 84 62 36 56 97 141 105 82 75 41 55 68 78 68 27 66 103 108 121 97 34 346 92 46 23 317 88 98 82 187 217 243 155 165 165 165 160 171 193 202 185 154 136 131 134 171 305 300 303 304 307 325 334 340 1 15 25 22
205 160 154 154 151 161 147 130 123 131 128 133 131 95 87 106 128 137 137 119 108 120 120 91 65 89 117 96 60 27 9 44 23 349 139 194 167 165 172 133 102 69 358 87 131 133 152 190 357 121 137 125 15 126 116 133 258 270 238 192 181 170 183 168 155 181 209 212 195 171 152 168 184 236 266 273 276 285 291 304 313 325 356 21 28
224 207 155 164 182 166 133 143 152 147 139 128 94 91 106 114 113 91 81 89 97 103 97 111 111 72 81 90 85 53 359 34 3 335 21 355 21 2 68 53 59 43 38 38 81 115 134 161 175 184 126 113 175 163 143 184 219 201 266 223 151 250 147 161 164 181 200 214 207 190 187 180 206 225 247 260 269 265 267 270 272 292 321 8 24
197 210 135 178 189 144 145 149 144 147 127 119 129 128 141 139 116 93 98 103 112 123 135 136 113 116 87 100 92 82 27 75 330 37 329 17 120 55 86 97 81 100 40 325 69 136 161 157 213 123 135 199 248 234 157 194 176 197 284 4 324 206 197 53 110 173 205 207 218 212 204 210 216 221 239 252 258 261 255 245 252 254 270 275 9
196 156 139 195 158 162 166 154 141 140 130 147 139 151 129 141 133 114 127 143 158 147 160 119 127 116 118 120 134 125 89 27 19 338 340 0 15 334 44 128 150 115 141 13 345 30 141 155 181 145 171 186 218 258 207 132 138 177 225 212 200 65 43 32 346 40 164 196 222 230 225 227 234 226 242 250 254 258 251 244 242 236 223 216 229
170 161 170 186 175 165 161 168 143 132 135 161 154 122 138 104 115 131 122 110 137 118 72 84 95 110 147 149 128 132 152 109 183 327 23 15 19 3 21 11 49 102 50 172 273 53 43 2 71 110 143 311 356 257 332 99 94 347 12 36 23 30 33 9 14 8 358 205 208 226 253 263 259 246 247 251 252 256 253 238 239 235 222 210 206
149 197 184 177 180 175 177 187 166 158 158 175 173 150 151 173 131 166 131 137 155 161 128 151 152 132 132 167 134 139 154 172 105 76 36 27 16 11 13 0 14 77 320 293 307 139 175 176 35 43 12 226 116 272 319 1 317 75 66 30 19 7 3 32 4 345 315 328 327 247 229 252 299 293 254 258 258 258 253 235 235 234 210 203 203
162 180 197 195 177 201 177 187 181 175 177 175 178 175 177 180 177 179 166 159 177 171 148 137 65 115 172 85 32 29 14 17 175 106 80 87 116 322 6 356 353 356 12 18 344 354 335 8 67 212 198 220 135 189 232 306 342 41 71 82 8 358 343 10 339 296 287 346 344 340 286 284 288 292 299 292 285 272 254 228 235 233 199 198 204
169 189 192 199 180 201 213 183 191 177 193 177 190 185 182 179 175 168 167 172 139 112 86 93 87 70 99 87 86 92 81 59 40 76 91 90 52 56 327 281 318 306 330 338 330 327 283 237 235 235 231 233 220 193 121 104 118 151 140 128 187 294 21 349 329 314 336 352 324 342 328 338 335 324 322 313 293 290 252 221 241 225 194 197 203
206 193 248 237 218 197 224 212 194 185 188 185 191 182 194 172 169 169 146 164 153 122 109 117 104 81 77 104 118 123 118 116 117 105 96 79 68 75 42 16 38 15 329 291 278 281 318 316 283 319 324 234 227 142 134 146 162 105 49 51 32 352 350 324 297 311 358 11 2 333 320 317 313 307 301 291 298 262 249 216 228 206 197 196 206
324 292 251 270 278 269 233 238 209 194 188 175 173 173 198 172 153 134 150 145 137 151 163 161 156 167 171 128 117 117 101 129 153 174 155 121 116 108 85 74 69 83 357 272 225 245 273 285 313 324 309 5 348 320 102 80 56 82 91 65 33 352 301 311 299 314 3 26 347 324 306 306 308 298 292 292 308 300 283 285 210 202 196 199 209
320 320 289 254 256 251 264 279 258 213 189 155 160 166 177 171 145 144 136 139 148 155 155 146 152 151 137 120 149 140 161 159 276 225 163 117 122 119 101 97 95 70 86 88 15 20 70 31 2 0 18 28 71 47 22 39 26 39 48 43 10 350 340 342 314 297 314 5 323 302 295 298 291 288 293 287 282 289 314 324 195 195 198 203 214
0 323 295 268 245 257 243 229 255 253 205 159 151 151 149 153 142 146 161 164 166 180 172 178 169 160 135 132 131 193 164 191 211 204 167 128 89 106 110 100 76 86 96 73 71 79 89 74 34 33 69 353 65 45 53 38 17 44 23 28 23 12 6 337 306 315 310 305 300 287 282 285 284 276 270 268 266 277 283 295 284 217 210 212 220
216 276 283 307 324 297 284 268 277 339 354 344 160 157 157 157 162 165 181 172 183 178 181 192 187 170 148 158 163 180 173 201 219 217 176 134 129 113 133 163 125 96 105 116 107 89 145 116 105 334 30 57 79 74 47 37 49 34 33 8 10 352 330 291 285 283 277 279 271 274 277 272 263 275 281 282 286 286 286 281 303 300 243 237 243
192 218 242 261 277 281 293 345 304 258 145 149 232 191 184 182 186 187 209 180 181 193 181 195 187 158 160 168 179 190 193 172 132 73 117 143 142 147 157 178 127 97 60 42 32 9 6 14 46 68 68 46 55 49 28 31 45 43 39 10 335 297 281 275 277 262 271 266 276 290 288 295 306 317 307 310 319 319 321 330 340 337 310 272 253
194 215 229 216 221 244 254 252 257 262 199 182 139 331 260 231 201 221 227 191 172 190 185 142 157 165 167 182 189 202 175 142 135 110 97 144 155 164 162 133 95 89 70 40 5 49 63 69 67 82 89 91 86 80 58 43 39 34 14 6 333 307 317 321 313 329 311 304 307 312 309 317 319 312 319 323 345 338 338 333 328 314 300 299 278
205 197 199 203 205 228 245 245 246 249 106 158 168 197 202 202 201 217 229 243 238 233 290 221 171 183 200 197 195 173 134 106 94 93 96 53 157 158 150 122 121 109 117 130 78 66 80 89 100 105 112 103 93 92 80 79 98 98 50 356 326 19 354 316 298 307 300 351 344 28 351 322 339 348 332 340 341 329 321 313 303 310 316 313 285
275 246 200 193 194 213 226 232 218 228 150 182 185 200 202 200 195 203 202 208 216 229 233 200 212 178 137 233 199 138 125 127 116 108 112 116 186 146 130 132 140 133 142 152 148 79 80 82 82 89 92 100 116 109 117 139 170 176 165 203 229 122 256 267 284 302 311 316 296 32 356 302 333 341 326 314 313 296 314 313 315 320 325 329 301
240 241 247 190 188 214 229 231 211 203 198 187 194 203 208 206 209 215 204 199 202 218 215 212 176 146 115 355 132 126 127 132 121 121 103 87 205 141 142 158 165 161 156 165 148 138 151 132 119 148 168 185 199 183 201 212 210 216 224 220 219 209 241 263 274 288 298 276 322 43 6 322 344 327 341 325 309 316 302 319 336 329 331 337 336